Flag for Austria Weather past 2 weeks in Neusiedl am See, Burgenland, Austria

Now
77 °F

Warm.


Feels Like: 79 °F
Forecast: 71 / 92 °F
Wind: 2 mph from Northeast

Location: Eisenstadt

Current Time: Aug 4, 2015 at 10:13:11 PM

Latest Report: Aug 4, 2015 at 9:00 PM


Visibility: N/A

Pressure: 29.90 "Hg

Humidity: 68%

Dew point: 66 °F

Location of Neusiedl am SeeLocation

Historic Weather in Neusiedl am See — Graph

°F

Neusiedl am See temperature yesterday

Maximum temperature yesterday: 81 °F (at 3:00 PM)
Minimum temperature yesterday: 63 °F (at 1:00 AM)
Average temperature yesterday: 71 °F

Past Weeks' High & Low Weather Summary

 TemperatureHumidityPressure
High97 °F (Jul 22, 4:00 PM)96% (Jul 29, 11:00 PM)30.10 "Hg (Jul 29, 11:00 PM)
Low54 °F (Aug 1, 5:00 AM)29% (Jul 31, 6:00 PM)29.67 "Hg (Jul 25, 3:00 PM)
Average72 °F65%29.90 "Hg
* Reported Jul 20 8:00 PM — Aug 4 8:00 PM, Neusiedl am See, Weather by CustomWeather, © 2015

Note: Actual official high and low records may vary slightly from our data, if they occured in-between our weather recording intervals... More about our weather records

Advertising

Neusiedl am See weather history for previous 24 hours

 ConditionsComfort  
Time TempWeatherWind HumidityBarometerVisibility
8:00 PM
Tue, Aug 4
84 °FPassing clouds.3 mph54%29.88 "Hg12 mi
7:00 PM86 °FPassing clouds.5 mph48%29.87 "Hg12 mi
6:00 PM88 °FHot.5 mph43%29.86 "HgN/A
5:00 PM89 °FHot.6 mph40%29.87 "HgN/A
4:00 PM89 °FHot.6 mph41%29.89 "HgN/A
3:00 PM88 °FHot.6 mph41%29.90 "HgN/A
2:00 PM86 °FScattered clouds.6 mph47%29.92 "Hg7 mi
1:00 PM86 °FWarm.6 mph51%29.93 "HgN/A
12:00 PM82 °FWarm.6 mph60%29.95 "HgN/A
11:00 AM80 °FPassing clouds.2 mph62%29.97 "Hg9 mi
10:00 AM78 °FWarm.2 mph68%29.98 "HgN/A
9:00 AM74 °FMild.2 mph74%29.99 "HgN/A
8:00 AM71 °FSunny.2 mph79%30.00 "Hg7 mi
7:00 AM66 °FSunny.1 mph89%30.01 "Hg9 mi
6:00 AM65 °FSunny.1 mph91%30.01 "Hg9 mi
5:00 AM65 °FClear.3 mph92%30.00 "Hg12 mi
4:00 AM65 °FMild.2 mph92%30.00 "HgN/A
3:00 AM66 °FMild.2 mph92%30.01 "HgN/A
2:00 AM67 °FClear.2 mph90%30.02 "Hg12 mi
1:00 AM67 °FMild.3 mph90%30.03 "HgN/A
12:00 AM67 °FMild.2 mph89%30.04 "HgN/A
11:00 PM
Mon, Aug 3
68 °FClear.5 mph87%30.04 "Hg12 mi
10:00 PM69 °FMild.2 mph85%30.04 "HgN/A
Weather by CustomWeather, © 2015

See weather overviewHow to use our weather pages